SCP
1 2 2 2 1 1 1 1 1 1 1 1 2 2 2 2 1 2 2 2 2 2 2 1 1 1 1 1 1 1 1 1 2 2 2 1 1 1 1 1 1 1 1
2 2 2 2 1 1 1 1 1 1 1 2 2 2 2 2 2 2 2 2 2 2 2 2 1 1 1 1 1 1 1 1 2 2 2 2 1 1 1 1 1 1 1
2 2 2 2 2 1 1 1 1 1 1 1 2 2 2 2 2 2 1 2 2 2 2 2 2 1 1 1 1 1 1 2 2 2 2 2 2 1 1 1 1 1 1
2 2 2 2 1 1 1 1 1 1 1 1 1 2 2 3 2 2 1 1 1 2 2 2 2 1 1 1 1 1 2 2 2 2 2 2 2 2 1 1 1 1 1
2 2 2 2 1 1 1 1 1 1 1 1 1 1 2 3 3 2 1 1 1 1 2 2 2 2 2 2 2 2 2 2 2 2 2 2 2 2 2 2 2 2 2
2 2 2 1 1 1 1 1 1 1 1 1 1 1 2 2 2 2 1 1 1 1 1 2 2 2 2 2 2 2 2 2 2 2 2 2 2 2 2 2 2 2 2
1 2 1 1 1 1 2 2 2 2 1 1 1 1 1 1 2 1 1 1 1 1 2 2 2 2 2 2 2 3 3 3 3 3 2 2 2 2 2 2 2 2 2
1 1 1 1 1 1 2 2 2 2 2 2 2 2 2 1 1 1 2 2 2 2 2 2 2 3 3 3 3 3 3 3 3 3 3 3 3 3 3 3 2 2 2
2 2 1 1 2 2 2 2 2 2 2 3 3 3 3 2 2 2 2 2 2 2 2 2 3 3 4 4 3 3 3 4 4 4 4 4 4 4 4 3 3 3 3
2 2 2 3 3 3 2 2 2 2 2 3 3 3 3 3 3 2 2 2 2 2 2 2 3 3 4 4 4 4 4 4 4 4 4 4 4 4 4 4 4 3 3
2 2 3 3 4 3 3 3 3 3 3 3 3 3 3 3 3 3 2 2 2 2 2 2 2 3 4 4 4 4 4 4 4 4 4 5 5 5 5 5 5 5 4
2 2 2 3 3 3 3 4 4 4 4 3 3 3 3 3 3 3 3 3 2 2 2 2 3 3 3 4 4 4 4 3 3 3 4 4 5 5 5 6 6 6 6
2 2 1 1 2 2 3 3 3 3 3 3 3 3 3 4 3 3 3 3 3 3 3 3 3 3 3 3 3 3 3 3 3 2 2 3 4 4 5 6 6 7 7
1 1 1 1 1 1 2 2 2 3 3 3 3 3 3 3 3 3 3 3 3 4 4 4 4 3 3 3 3 3 3 3 2 2 2 2 2 3 4 4 5 6 7
1 1 1 1 1 1 1 1 2 2 3 3 3 3 2 2 2 2 3 3 3 4 4 5 5 4 4 3 3 4 4 3 2 2 1 1 1 2 2 3 3 4 5
1 1 1 2 2 2 1 1 2 2 2 3 3 3 3 2 2 2 2 2 3 3 3 4 4 4 3 3 3 4 4 3 3 2 1 1 1 1 1 1 2 2 3
2 2 2 2 2 2 2 2 2 2 2 2 3 3 3 2 2 2 2 2 2 2 2 2 2 2 2 2 2 3 3 3 3 2 1 1 1 1 1 1 1 1 1
2 2 2 3 3 3 2 2 1 1 2 2 2 3 3 3 3 2 2 2 2 2 2 2 2 2 2 2 2 2 2 2 2 2 2 1 1 0 0 0 0 0 0
2 2 2 3 4 4 3 2 2 2 2 2 2 3 3 3 3 3 3 3 2 3 3 2 2 2 2 2 2 2 2 2 2 2 2 2 1 1 0 0 0 0 0
2 2 2 3 4 4 3 3 2 3 3 3 3 3 3 3 4 4 3 3 3 3 3 3 2 2 2 2 2 3 3 3 3 3 3 3 2 2 1 1 0 0 0
3 3 3 3 4 4 3 3 3 3 3 3 3 3 3 3 3 3 3 3 4 4 4 4 3 3 3 3 3 3 3 4 4 5 5 5 4 4 3 2 1 1 0
4 4 4 4 4 4 3 2 2 3 4 4 4 4 4 3 3 3 2 2 3 3 4 4 4 4 5 5 5 4 4 5 6 7 6 6 5 5 5 4 2 1 0
5 5 5 5 5 4 3 2 2 3 4 5 5 5 5 4 4 3 3 2 2 2 3 4 4 5 5 7 7 7 7 7 7 7 7 6 6 6 6 4 3 1 0
5 5 5 6 6 5 3 1 1 2 3 4 5 6 6 5 5 5 5 4 4 3 3 3 4 4 5 7 8 9 9 8 8 7 7 6 6 7 7 6 3 1 0
6 5 5 6 6 6 3 1 1 2 3 3 4 5 5 5 5 5 5 5 5 4 4 3 3 4 4 5 7 9 9 9 8 8 8 8 8 9 9 7 3 1 0
5 5 5 6 6 6 4 2 1 2 3 3 4 5 5 5 5 4 5 5 4 4 4 4 4 4 4 5 5 7 8 9 9 9 9 10 10 11 11 7 4 2 1
Wind_Speed
0 1 1 1 1 2 3 3 3 3 4 4 4 5 4 4 4 3 3 9 10 9 9 9 9 9 9 10 9 9 9 9 8 8 8 9 8 8 8 8 8 8 8
0 0 1 1 1 1 1 2 3 3 3 3 4 4 4 4 3 4 4 7 11 10 9 9 9 9 10 10 10 9 9 9 8 8 9 9 8 9 9 8 8 8 7
1 1 1 1 1 1 2 2 2 2 3 3 3 3 3 4 3 3 3 3 6 11 11 10 10 9 10 9 10 10 9 9 8 8 8 9 8 8 8 8 8 8 7
1 1 1 1 1 1 2 2 3 2 2 2 2 2 2 3 4 4 4 4 3 4 9 11 9 9 9 9 10 10 9 9 9 9 9 9 9 9 9 9 9 8 8
1 2 1 1 2 2 2 2 1 1 1 2 2 2 2 2 2 3 3 3 3 4 4 8 10 8 9 9 9 9 9 9 10 10 10 9 9 9 9 9 9 9 8
1 1 2 2 2 2 2 1 1 1 1 1 1 1 1 2 2 1 2 2 2 3 3 3 5 6 9 8 8 8 8 8 8 9 9 9 9 9 9 9 9 9 9
1 1 1 1 2 2 1 1 2 2 1 1 1 1 1 2 1 1 1 1 2 2 2 2 2 2 4 8 7 7 8 8 8 8 8 9 9 9 9 9 10 10 10
1 1 1 1 2 1 2 2 2 1 1 2 1 1 2 3 2 1 2 2 2 2 2 3 2 3 3 3 5 8 7 7 8 8 8 8 9 9 9 9 10 10 10
1 1 1 1 1 2 2 3 3 3 1 1 1 1 1 0 0 2 2 1 1 1 2 2 3 3 3 3 3 6 7 7 7 8 8 7 7 8 9 9 10 10 11
1 1 1 1 2 2 1 3 3 2 2 2 2 1 1 1 1 1 2 2 2 2 2 2 2 3 3 3 2 2 4 5 6 7 7 6 6 6 8 8 9 10 11
1 1 1 1 1 2 1 2 2 3 3 3 2 2 2 2 3 2 2 1 2 2 2 3 2 2 2 2 2 2 4 4 4 5 6 6 6 6 7 8 8 8 9
1 1 1 1 1 1 1 2 2 3 2 2 2 2 2 2 2 2 2 3 2 2 1 1 2 2 2 2 2 3 4 4 4 4 5 6 7 7 7 8 8 9 9
1 1 1 1 1 1 1 1 1 1 2 2 3 2 2 2 2 2 3 3 2 2 2 2 2 2 2 2 2 3 4 4 4 4 4 5 6 7 7 8 8 9 9
1 2 1 1 1 1 0 0 1 1 1 2 2 2 2 2 2 3 3 3 3 3 2 2 2 2 2 2 1 3 3 5 5 4 4 4 5 6 6 7 7 7 7
1 1 1 1 1 0 0 1 0 1 1 2 2 2 2 2 2 2 2 3 4 4 3 3 2 2 2 1 1 3 3 4 5 5 4 4 4 5 6 6 6 6 7
1 1 1 0 0 0 1 1 1 1 1 1 1 1 2 2 1 2 3 3 3 4 4 2 2 2 2 2 2 3 4 5 6 5 5 5 4 4 5 5 5 6 6
1 1 1 1 1 1 1 1 1 0 1 1 1 1 2 2 2 2 2 3 3 3 4 3 3 2 3 4 3 4 4 5 4 6 6 5 5 5 5 5 5 6 6
1 1 1 1 1 1 1 1 2 1 1 2 2 2 2 2 2 3 3 3 3 3 4 4 3 3 4 4 4 5 4 4 4 5 7 7 6 6 6 6 6 6 6
1 1 1 2 2 1 2 2 2 2 2 2 2 2 2 3 3 3 4 4 4 4 4 4 4 3 4 4 4 5 5 4 6 5 8 9 8 7 7 7 6 6 6
2 2 2 1 1 1 2 2 2 3 3 2 2 3 3 3 3 4 4 4 4 4 4 4 4 4 4 4 4 4 4 4 5 4 4 5 7 10 9 8 7 6 6
1 1 1 1 1 1 2 2 3 3 2 2 2 2 2 2 2 3 3 3 3 4 4 4 4 4 4 3 4 4 4 4 4 4 4 4 5 5 6 8 8 7 7
1 1 1 2 2 1 3 3 3 2 2 2 2 2 2 2 2 2 3 3 3 4 4 4 4 4 5 5 4 5 4 5 4 2 4 4 4 4 4 4 5 7 7
1 1 2 2 1 2 3 2 3 3 3 2 2 3 3 1 2 3 3 3 3 3 4 6 6 6 5 4 5 6 5 5 5 3 4 5 4 4 4 3 6 7 7
1 1 2 2 2 2 2 2 4 4 3 3 2 2 2 2 2 3 3 3 4 3 4 5 5 6 5 5 5 6 6 6 6 4 4 6 4 4 5 3 5 6 7
2 2 1 1 2 1 2 2 4 3 2 2 2 1 2 2 2 3 4 4 4 3 2 2 3 3 4 5 5 5 5 5 5 4 3 5 5 4 4 4 3 7 7
2 2 2 2 2 2 1 2 4 3 2 2 1 1 1 3 3 3 4 4 4 4 4 3 3 4 5 4 5 5 5 6 5 4 2 4 5 4 4 4 3 3 4
Wind_Direction
177 126 140 160 185 159 170 189 192 192 204 206 211 211 214 213 213 205 162 165 183 194 203 209 208 204 203 206 208 209 209 209 206 205 206 208 210 210 211 211 210 210 212
109 193 182 198 198 188 187 197 193 199 210 214 218 216 225 217 206 211 202 172 182 190 197 205 211 211 211 211 210 209 209 211 209 209 211 212 212 213 213 213 211 210 207
320 279 216 213 200 182 185 192 197 202 208 215 218 218 219 222 215 214 219 211 187 187 195 204 209 212 213 212 212 211 211 210 210 212 212 210 209 209 208 210 209 210 210
265 254 227 213 189 203 195 189 203 198 207 228 222 233 224 206 209 212 212 207 204 192 187 193 203 211 217 220 221 216 212 209 209 211 212 212 211 210 212 213 212 210 208
246 239 225 194 217 204 207 212 170 210 220 233 210 201 218 211 201 199 196 206 196 206 194 176 190 205 216 220 222 218 213 211 211 211 210 210 210 211 212 210 210 211 211
264 250 213 183 221 206 204 193 192 205 231 227 219 185 205 198 189 185 205 196 194 206 208 192 188 193 206 216 219 220 218 216 212 212 211 211 212 212 213 211 212 212 213
291 255 254 178 222 202 206 199 204 193 189 157 181 174 176 177 172 183 202 194 186 193 205 199 211 215 195 199 209 217 218 216 214 214 216 216 216 216 215 214 214 214 215
312 240 235 224 215 189 186 194 196 218 197 175 217 216 193 174 174 180 186 188 206 205 205 198 201 211 232 204 181 199 210 213 216 216 218 219 220 220 218 217 217 216 216
337 325 294 257 226 225 195 200 202 206 211 203 215 263 263 204 98 164 181 191 205 228 229 188 202 209 218 217 192 182 198 210 216 221 221 220 220 220 218 218 220 219 218
346 321 290 262 253 252 209 223 208 215 212 211 195 240 306 355 256 198 192 180 190 219 238 239 225 208 214 212 188 162 183 206 217 223 220 218 219 220 219 219 222 224 220
6 356 331 300 268 259 245 250 228 227 223 231 228 202 194 203 236 244 238 227 213 216 217 233 239 236 216 211 205 172 172 194 205 216 219 219 220 221 221 223 225 226 222
37 31 347 321 291 284 253 243 240 224 231 241 248 236 228 229 225 238 245 245 255 255 231 227 237 234 222 215 192 132 163 181 195 205 219 225 226 225 225 227 228 230 231
18 33 0 346 316 312 290 261 221 240 228 230 238 239 251 257 251 255 246 250 259 254 235 232 215 227 237 229 184 161 176 185 197 206 218 227 229 228 229 231 233 234 236
9 28 23 30 7 328 302 201 224 215 212 226 234 246 254 260 256 246 248 248 254 250 238 242 233 228 237 233 144 203 199 183 196 209 220 229 231 233 233 234 234 235 239
342 12 360 44 47 6 302 231 213 224 214 222 220 213 241 248 246 246 243 246 255 258 253 232 235 229 242 254 219 244 248 192 195 209 222 228 232 233 232 234 235 237 239
322 328 336 336 139 189 212 237 216 210 225 221 245 249 255 250 250 246 243 244 249 255 260 249 252 246 267 259 245 258 248 210 196 207 218 221 223 226 227 224 229 236 239
272 274 291 283 253 221 209 211 250 253 256 267 267 242 254 269 262 250 249 252 254 253 252 255 250 242 248 258 259 258 246 245 212 191 209 216 220 221 222 227 230 232 234
258 258 279 273 259 230 211 213 235 236 243 251 259 261 259 250 252 259 256 251 253 252 249 253 251 247 246 247 248 254 253 249 247 188 200 210 218 221 225 229 231 232 232
267 275 269 265 260 244 226 228 238 240 239 249 256 256 260 256 254 255 258 255 252 246 244 246 250 259 256 256 255 254 255 256 252 208 199 203 212 222 229 229 232 235 235
253 263 262 266 262 271 270 252 235 237 241 245 251 257 257 259 258 259 254 254 253 249 238 243 246 244 249 250 252 253 249 244 253 250 235 223 211 215 220 218 225 231 231
251 248 257 264 247 244 293 292 254 234 237 246 250 257 256 280 309 295 291 271 258 254 246 243 247 251 253 252 255 255 256 259 251 251 252 240 225 228 219 217 221 231 232
332 304 277 279 288 326 23 356 308 264 248 250 260 265 252 237 262 264 293 304 295 270 268 261 256 264 265 261 263 265 264 265 265 252 264 259 250 249 240 235 212 213 221
337 331 314 299 295 6 21 352 313 276 260 262 267 274 274 285 278 269 254 245 262 286 280 271 272 276 278 277 273 267 266 266 271 277 268 268 259 260 259 235 178 196 213
288 294 305 305 304 357 6 332 301 262 263 259 259 269 278 281 296 291 271 263 261 257 255 252 264 275 284 290 278 272 273 264 260 255 255 267 265 264 263 250 168 192 209
278 270 280 300 300 326 359 331 297 267 262 257 263 282 296 282 348 310 269 269 274 274 250 263 275 281 299 295 290 281 276 270 266 254 242 265 272 275 267 254 207 193 208
269 270 272 277 286 303 357 333 294 280 277 264 250 238 35 349 355 317 270 271 274 283 287 271 251 243 251 250 248 261 272 274 277 274 246 265 274 278 274 265 266 227 226